Tracking 23762 objects as of 22-Oct-2021
HD Live streaming from Space Station
objects crossing your sky now

ARABSAT 2B

Track ARABSAT 2B now!
ARABSAT 2B is classified as:


NORAD ID: 24652
Int'l Code: 1996-063A
Perigee: 36,023.7 km
Apogee: 36,049.7 km
Inclination: 6.9 °
Period: 1,448.5 minutes
Semi major axis: 42407 km
RCS: 3.8888 m2 (large)
Launch date: November 13, 1996
Source: Arab Satellite Communications Organization (AB)
Launch site: FRENCH GUIANA (FRGUI)

Second generation; radio and tv communications to Middle East.
aabbcc
Your satellite tracking list
Your tracking list is empty




NASA's NSSDC Master Catalog

Two Line Element Set (TLE):
1 24652U 96063A   21295.42358187 -.00000195  00000-0  00000-0 0  9996
2 24652   6.9101  62.2101 0003068  96.3220 320.2945  0.99411455 91574
Source of the keplerian elements: AFSPC